| time (UTC) | temp C | wind direction | speed KPH | gust KPH | rain 1hr cm | rain 24hr cm | rain mn cm | humidity % | barometer mb |
| 20260903061506 | 11 | 140 | 3.2 | 8.0 | 0.00 | 0.00 | 0.00 | 55 | 1011.0 |
| 20260903060015 | 13 | 190 | 3.2 | 4.8 | 0.00 | 0.00 | 0.00 | 47 | 1010.8 |
| 20260903054514 | 12 | 84 | 3.2 | 6.4 | 0.00 | 0.00 | 0.00 | 47 | 1011.0 |
| 20260903053018 | 13 | 69 | 1.6 | 6.4 | 0.00 | 0.00 | 0.00 | 47 | 1011.3 |
| 20260903051503 | 13 | 155 | 3.2 | 6.4 | 0.00 | 0.00 | 0.00 | 49 | 1011.5 |
| 20260903050009 | 13 | 271 | 0.0 | 3.2 | 0.00 | 0.00 | 0.00 | 45 | 1011.4 |
| 20260903044512 | 13 | 140 | 0.0 | 6.4 | 0.00 | 0.00 | 0.00 | 43 | 1011.2 |
| 20260903043018 | 13 | 88 | 3.2 | 6.4 | 0.00 | 0.00 | 0.00 | 42 | 1011.2 |
| 20260903041529 | 15 | 321 | 0.0 | 3.2 | 0.00 | 0.00 | 0.00 | 41 | 1011.5 |
| 20260903040008 | 15 | 338 | 3.2 | 4.8 | 0.00 | 0.00 | 0.00 | 41 | 1011.7 |
| 20260903034508 | 15 | 133 | 3.2 | 6.4 | 0.00 | 0.00 | 0.00 | 42 | 1011.5 |
| 20260903033016 | 15 | 109 | 3.2 | 4.8 | 0.00 | 0.00 | 0.00 | 38 | 1011.5 |
| 20260903031518 | 15 | 109 | 4.8 | 9.7 | 0.00 | 0.00 | 0.00 | 40 | 1011.4 |
| 20260903030030 | 15 | 94 | 0.0 | 3.2 | 0.00 | 0.00 | 0.00 | 40 | 1011.3 |
| 20260903024506 | 15 | 80 | 3.2 | 4.8 | 0.00 | 0.00 | 0.00 | 43 | 1011.1 |
| 20260903023012 | 16 | 71 | 3.2 | 6.4 | 0.00 | 0.00 | 0.00 | 40 | 1011.1 |
| 20260903021522 | 16 | 88 | 3.2 | 4.8 | 0.00 | 0.00 | 0.00 | 40 | 1011.1 |
| 20260903020044 | 16 | 80 | 0.0 | 3.2 | 0.00 | 0.00 | 0.00 | 44 | 1011.2 |
| 20260903014528 | 17 | 53 | 0.0 | 0.0 | 0.00 | 0.00 | 0.00 | 43 | 1011.2 |
| 20260903013008 | 17 | 33 | 0.0 | 0.0 | 0.00 | 0.00 | 0.00 | 42 | 1010.9 |
| 20260903011516 | 18 | 60 | 0.0 | 4.8 | 0.00 | 0.00 | 0.00 | 39 | 1010.9 |
| 20260903010024 | 18 | 76 | 0.0 | 12.9 | 0.00 | 0.00 | 0.00 | 37 | 1010.9 |
| 20260903004529 | 19 | 360 | 6.4 | 14.5 | 0.00 | 0.00 | 0.00 | 35 | 1011.0 |
| 20260903003028 | 19 | 352 | 1.6 | 11.3 | 0.00 | 0.00 | 0.00 | 36 | 1010.9 |
| 20260903001514 | 20 | 327 | 6.4 | 16.1 | 0.00 | 0.00 | 0.00 | 36 | 1010.9 |
| 20260903000016 | 21 | 287 | 3.2 | 17.7 | 0.00 | 0.00 | 0.00 | 34 | 1010.8 |
| 20260902234526 | 22 | 340 | 8.0 | 16.1 | 0.00 | 0.00 | 0.00 | 34 | 1010.7 |
| 20260902233029 | 22 | 341 | 3.2 | 20.9 | 0.00 | 0.00 | 0.00 | 31 | 1010.6 |
| 20260902231532 | 25 | 282 | 19.3 | 33.8 | 0.00 | 0.00 | 0.00 | 15 | 1010.6 |
| 20260902230018 | 23 | 330 | 4.8 | 8.0 | 0.00 | 0.00 | 0.00 | 29 | 1010.5 |
| 20260902224524 | 25 | 26 | 4.8 | 30.6 | 0.00 | 0.00 | 0.00 | 27 | 1010.5 |
| 20260902223004 | 26 | 233 | 19.3 | 37.0 | 0.00 | 0.00 | 0.00 | 16 | 1010.0 |
| 20260902221509 | 26 | 221 | 19.3 | 41.8 | 0.00 | 0.00 | 0.00 | 18 | 1009.7 |
| 20260902220021 | 25 | 198 | 37.0 | 57.9 | 0.00 | 0.00 | 0.00 | 16 | 1009.4 |
| 20260902214523 | 25 | 224 | 27.4 | 49.9 | 0.00 | 0.00 | 0.00 | 16 | 1009.6 |
| 20260902213004 | 26 | 201 | 20.9 | 46.7 | 0.00 | 0.00 | 0.00 | 17 | 1009.4 |
| 20260902211505 | 26 | 189 | 27.4 | 46.7 | 0.00 | 0.00 | 0.00 | 16 | 1009.1 |
| 20260902210018 | 26 | 192 | 32.2 | 56.3 | 0.00 | 0.00 | 0.00 | 16 | 1009.1 |
| 20260902204535 | 26 | 194 | 27.4 | 40.2 | 0.00 | 0.00 | 0.00 | 18 | 1009.2 |
| 20260902203026 | 26 | 190 | 29.0 | 53.1 | 0.00 | 0.00 | 0.00 | 19 | 1009.1 |
| 20260902201517 | 25 | 160 | 35.4 | 53.1 | 0.00 | 0.00 | 0.00 | 20 | 1009.2 |
| 20260902200009 | 26 | 157 | 19.3 | 41.8 | 0.00 | 0.00 | 0.00 | 25 | 1009.2 |
| 20260902194521 | 26 | 177 | 17.7 | 48.3 | 0.00 | 0.00 | 0.00 | 25 | 1009.6 |
| 20260902193024 | 25 | 329 | 8.0 | 20.9 | 0.00 | 0.00 | 0.00 | 29 | 1009.9 |
| 20260902191527 | 23 | 219 | 20.9 | 40.2 | 0.00 | 0.00 | 0.00 | 28 | 1010.0 |
| 20260902190008 | 24 | 169 | 20.9 | 38.6 | 0.00 | 0.00 | 0.00 | 27 | 1010.1 |
| 20260902184516 | 23 | 189 | 20.9 | 38.6 | 0.00 | 0.00 | 0.00 | 27 | 1010.4 |
| 20260902183022 | 23 | 214 | 22.5 | 37.0 | 0.00 | 0.00 | 0.00 | 30 | 1010.7 |
| 20260902181527 | 24 | 186 | 17.7 | 40.2 | 0.00 | 0.00 | 0.00 | 32 | 1010.7 |
| 20260902180008 | 22 | 166 | 19.3 | 25.7 | 0.00 | 0.00 | 0.00 | 35 | 1011.0 |
| 20260902174511 | 22 | 196 | 14.5 | 29.0 | 0.00 | 0.00 | 0.00 | 41 | 1011.2 |
| 20260902173035 | 19 | 183 | 3.2 | 12.9 | 0.00 | 0.00 | 0.00 | 61 | 1011.4 |
| 20260902171520 | 19 | 326 | 3.2 | 4.8 | 0.00 | 0.00 | 0.00 | 59 | 1011.3 |
| 20260902170027 | 18 | 345 | 0.0 | 3.2 | 0.00 | 0.00 | 0.00 | 61 | 1011.3 |
| 20260902164510 | 18 | 298 | 1.6 | 6.4 | 0.00 | 0.00 | 0.00 | 63 | 1011.4 |
| 20260902163014 | 18 | 352 | 0.0 | 4.8 | 0.00 | 0.00 | 0.00 | 60 | 1011.3 |
| 20260902161526 | 17 | 325 | 1.6 | 4.8 | 0.00 | 0.00 | 0.00 | 66 | 1011.2 |
| 20260902160024 | 16 | 65 | 3.2 | 6.4 | 0.00 | 0.00 | 0.00 | 67 | 1011.5 |
| 20260902154531 | 15 | 342 | 0.0 | 4.8 | 0.00 | 0.00 | 0.00 | 68 | 1011.6 |
| 20260902153014 | 15 | 342 | 0.0 | 3.2 | 0.00 | 0.00 | 0.00 | 69 | 1011.7 |
| 20260902151516 | 15 | 16 | 3.2 | 4.8 | 0.00 | 0.00 | 0.00 | 68 | 1012.0 |
| 20260902150024 | 15 | 13 | 0.0 | 0.0 | 0.00 | 0.00 | 0.00 | 71 | 1012.0 |
| 20260902144529 | 14 | 178 | 1.6 | 3.2 | 0.00 | 0.00 | 0.00 | 73 | 1012.2 |
| 20260902143030 | 13 | 208 | 1.6 | 4.8 | 0.00 | 0.00 | 0.00 | 74 | 1012.4 |
| 20260902141515 | 13 | 120 | 0.0 | 0.0 | 0.00 | 0.00 | 0.00 | 80 | 1012.5 |
| 20260902140033 | 12 | 124 | 0.0 | 3.2 | 0.00 | 0.00 | 0.00 | 84 | 1012.8 |
| 20260902134526 | 11 | 122 | 3.2 | 4.8 | 0.00 | 0.00 | 0.00 | 84 | 1013.0 |
| 20260902133006 | 11 | 360 | 0.0 | 3.2 | 0.00 | 0.00 | 0.00 | 84 | 1012.9 |
| 20260902131513 | 10 | 326 | 0.0 | 3.2 | 0.00 | 0.00 | 0.00 | 84 | 1012.7 |
| 20260902130021 | 10 | 24 | 1.6 | 4.8 | 0.00 | 0.00 | 0.00 | 84 | 1012.6 |
| 20260902124507 | 11 | 62 | 0.0 | 0.0 | 0.00 | 0.00 | 0.00 | 80 | 1012.6 |
| 20260902123017 | 11 | 18 | 0.0 | 0.0 | 0.00 | 0.00 | 0.00 | 78 | 1012.7 |
| 20260902121509 | 12 | 108 | 3.2 | 4.8 | 0.00 | 0.00 | 0.00 | 72 | 1012.8 |
| 20260902120017 | 14 | 17 | 0.0 | 4.8 | 0.00 | 0.00 | 0.00 | 61 | 1012.8 |
| 20260902114526 | 15 | 75 | 1.6 | 3.2 | 0.00 | 0.00 | 0.00 | 57 | 1012.8 |
| 20260902113004 | 15 | 136 | 1.6 | 6.4 | 0.00 | 0.00 | 0.00 | 60 | 1013.0 |
| 20260902111528 | 14 | 148 | 11.3 | 14.5 | 0.00 | 0.00 | 0.00 | 64 | 1013.1 |
| 20260902110039 | 13 | 157 | 9.7 | 19.3 | 0.00 | 0.00 | 0.00 | 73 | 1013.3 |
| 20260902104527 | 13 | 137 | 3.2 | 4.8 | 0.00 | 0.00 | 0.00 | 74 | 1013.7 |
| 20260902103024 | 13 | 36 | 1.6 | 6.4 | 0.00 | 0.00 | 0.00 | 76 | 1014.2 |
| 20260902101504 | 12 | 95 | 3.2 | 3.2 | 0.00 | 0.00 | 0.00 | 79 | 1015.0 |
| 20260902100010 | 13 | 200 | 4.8 | 19.3 | 0.00 | 0.00 | 0.00 | 76 | 1015.2 |
| 20260902094515 | 13 | 234 | 1.6 | 14.5 | 0.00 | 0.00 | 0.00 | 72 | 1014.4 |
| 20260902093023 | 13 | 139 | 9.7 | 14.5 | 0.00 | 0.00 | 0.00 | 74 | 1015.1 |
| 20260902091527 | 13 | 168 | 6.4 | 11.3 | 0.00 | 0.00 | 0.00 | 76 | 1015.7 |
| 20260902090008 | 14 | 207 | 4.8 | 8.0 | 0.00 | 0.00 | 0.00 | 74 | 1015.9 |
| 20260902084515 | 14 | 63 | 3.2 | 4.8 | 0.00 | 0.00 | 0.00 | 70 | 1015.6 |
| 20260902083019 | 15 | 57 | 0.0 | 8.0 | 0.00 | 0.00 | 0.00 | 67 | 1015.8 |
| 20260902081528 | 16 | 324 | 3.2 | 14.5 | 0.00 | 0.00 | 0.00 | 60 | 1016.1 |
| 20260902080029 | 16 | 337 | 1.6 | 9.7 | 0.00 | 0.00 | 0.00 | 56 | 1015.6 |
| 20260902074512 | 16 | 360 | 0.0 | 9.7 | 0.00 | 0.00 | 0.00 | 58 | 1015.6 |
| 20260902073019 | 16 | 20 | 3.2 | 14.5 | 0.00 | 0.00 | 0.00 | 58 | 1015.6 |
| 20260902071533 | 16 | 174 | 1.6 | 16.1 | 0.00 | 0.00 | 0.00 | 55 | 1015.5 |
| 20260902070031 | 16 | 15 | 3.2 | 8.0 | 0.00 | 0.00 | 0.00 | 54 | 1015.2 |
| 20260902064532 | 16 | 59 | 1.6 | 8.0 | 0.00 | 0.00 | 0.00 | 57 | 1014.7 |
| 20260902063028 | 16 | 101 | 6.4 | 14.5 | 0.00 | 0.00 | 0.00 | 57 | 1014.5 |